, AK

(GMT )
Denali Park

Weather History for PAIN - October, 2012

Change the Weather History Date:

Thursday, October 4, 2012

  Actual Average Record
Temperature  
Mean Temperature 48 °F -  
Max Temperature 53 °F 37 °F 57 °F (1952)
Min Temperature 42 °F 18 °F -7 °F (1974)
Degree Days  
Heating Degree Days 18    
Moisture  
Dew Point 39 °F    
Average Humidity 68    
Maximum Humidity 82    
Minimum Humidity 54    
Precipitation  
Precipitation 0.00 in - - ()
Sea Level Pressure  
Sea Level Pressure 29.95 in    
Wind  
Wind Speed 7 mph (South)    
Max Wind Speed 15 mph    
Max Gust Speed 29 mph    
Visibility 10 miles    
Events      
Averages and records for this station are not official NWS values.
T = Trace of Precipitation, MM = Missing Value Source: NWS Daily Summary

Daily Weather History Graph

Daily Weather History Graph

Search for Another Location

Airport or City:

Trip Planner

Search our weather history database for the weather conditions in past years. The results will help you decide how hot, cold, wet, or windy it might be!

Date:

Astronomy

Oct. 04, 2012 Rise Set
Actual Time 8:14 AM AKDT 7:12 PM AKDT
Civil Twilight 7:27 AM AKDT 7:58 PM AKDT
Nautical Twilight 6:32 AM AKDT 8:53 PM AKDT
Astronomical Twilight 5:34 AM AKDT 9:51 PM AKDT
Moon 8:07 PM AKDT (10/4) 2:26 PM AKDT (10/4)
Length of Visible Light 12h 31m
Length of Day
10h 57m
Waning Gibbous, 81% of the Moon is Illuminated
Oct 4
Waning Gibbous
Oct 7
Last Quarter
Oct 15
New
Oct 21
First Quarter
Oct 29
Full

Hourly Weather History & Observations

Time (AKDT) Temp. Windchill Dew Point Humidity Pressure Visibility Wind Dir Wind Speed Gust Speed Precip Events Conditions
12:16 AM 44.6 °F 39.2 °F 33.8 °F 66% 29.99 in 10.0 mi South 10.4 mph 17.3 mph N/A   Overcast
12:36 AM 44.6 °F 40.7 °F 35.6 °F 71% 29.99 in 10.0 mi South 6.9 mph - N/A   Overcast
12:56 AM 42.8 °F 40.1 °F 35.6 °F 76% 29.99 in 10.0 mi South 4.6 mph - N/A   Overcast
1:16 AM 42.8 °F 38.6 °F 35.6 °F 76% 29.98 in 10.0 mi South 6.9 mph - N/A   Overcast
1:36 AM 44.6 °F 42.2 °F 35.6 °F 71% 29.99 in 10.0 mi South 4.6 mph - N/A   Overcast
1:56 AM 44.6 °F 40.7 °F 35.6 °F 71% 29.99 in 10.0 mi South 6.9 mph - N/A   Overcast
2:16 AM 44.6 °F 42.2 °F 35.6 °F 71% 29.98 in 10.0 mi South 4.6 mph - N/A   Overcast
2:36 AM 44.6 °F 42.2 °F 35.6 °F 71% 29.99 in 10.0 mi South 4.6 mph - N/A   Overcast
2:56 AM 44.6 °F 40.7 °F 35.6 °F 71% 29.98 in 10.0 mi SSW 6.9 mph - N/A   Overcast
3:16 AM 44.6 °F 38.8 °F 35.6 °F 71% 29.96 in 10.0 mi SSW 11.5 mph 18.4 mph N/A   Overcast
3:36 AM 44.6 °F 40.7 °F 35.6 °F 71% 29.96 in 10.0 mi South 6.9 mph - N/A   Overcast
3:56 AM 44.6 °F 41.4 °F 35.6 °F 71% 29.96 in 10.0 mi South 5.8 mph - N/A   Overcast
4:16 AM 44.6 °F 42.2 °F 35.6 °F 71% 29.95 in 10.0 mi SE 4.6 mph - N/A   Overcast
4:36 AM 44.6 °F 42.2 °F 35.6 °F 71% 29.95 in 10.0 mi South 4.6 mph - N/A   Overcast
4:56 AM 46.4 °F 43.5 °F 37.4 °F 71% 29.95 in 10.0 mi SSE 5.8 mph - N/A   Overcast
5:16 AM 46.4 °F 43.5 °F 37.4 °F 71% 29.95 in 10.0 mi ESE 5.8 mph - N/A   Overcast
5:36 AM 44.6 °F 40.2 °F 37.4 °F 76% 29.94 in 10.0 mi South 8.1 mph - N/A   Overcast
5:56 AM 46.4 °F - 37.4 °F 71% 29.95 in 10.0 mi Calm Calm - N/A   Overcast
6:16 AM 46.4 °F 42.4 °F 37.4 °F 71% 29.95 in 10.0 mi East 8.1 mph - N/A   Overcast
6:36 AM 46.4 °F 44.3 °F 37.4 °F 71% 29.95 in 10.0 mi WSW 4.6 mph - N/A   Overcast
6:56 AM 46.4 °F 45.2 °F 37.4 °F 71% 29.94 in 10.0 mi ENE 3.5 mph - N/A   Overcast
7:16 AM 44.6 °F 39.7 °F 37.4 °F 76% 29.92 in 10.0 mi South 9.2 mph - N/A   Mostly Cloudy
7:36 AM 46.4 °F 41.9 °F 37.4 °F 71% 29.91 in 10.0 mi South 9.2 mph - N/A   Overcast
7:56 AM 46.4 °F 41.9 °F 37.4 °F 71% 29.92 in 10.0 mi South 9.2 mph 18.4 mph N/A   Overcast
8:16 AM 46.4 °F 41.9 °F 37.4 °F 71% 29.92 in 10.0 mi South 9.2 mph - N/A   Overcast
8:36 AM 48.2 °F - 37.4 °F 66% 29.93 in 10.0 mi South 11.5 mph 21.9 mph N/A   Overcast
8:56 AM 48.2 °F - 37.4 °F 66% 29.94 in 10.0 mi SSE 8.1 mph 19.6 mph N/A   Overcast
9:16 AM 48.2 °F - 37.4 °F 66% 29.95 in 10.0 mi SSE 3.5 mph - N/A   Overcast
9:36 AM 48.2 °F - 37.4 °F 66% 29.95 in 10.0 mi SSE 5.8 mph - N/A   Overcast
9:56 AM 48.2 °F - 37.4 °F 66% 29.95 in 10.0 mi ESE 3.5 mph - N/A   Overcast
10:16 AM 48.2 °F - 37.4 °F 66% 29.95 in 10.0 mi Calm Calm - N/A   Overcast
10:36 AM 48.2 °F - 37.4 °F 66% 29.93 in 10.0 mi SSW 4.6 mph - N/A   Overcast
10:56 AM 48.2 °F - 39.2 °F 71% 29.91 in 10.0 mi South 12.7 mph 18.4 mph N/A   Overcast
11:16 AM 48.2 °F - 39.2 °F 71% 29.94 in 10.0 mi West 3.5 mph - N/A   Overcast
11:36 AM 48.2 °F - 39.2 °F 71% 29.94 in 10.0 mi Calm Calm - N/A   Overcast
11:56 AM 48.2 °F - 39.2 °F 71% 29.95 in 10.0 mi Calm Calm - N/A   Overcast
12:16 PM 50.0 °F - 39.2 °F 66% 29.95 in 10.0 mi South 4.6 mph - N/A   Overcast
12:36 PM 51.8 °F - 39.2 °F 62% 29.94 in 10.0 mi SSW 5.8 mph - N/A   Overcast
12:56 PM 51.8 °F - 39.2 °F 62% 29.94 in 10.0 mi South 9.2 mph - N/A   Overcast
1:16 PM 53.6 °F - 39.2 °F 58% 29.94 in 10.0 mi South 12.7 mph 23.0 mph N/A   Mostly Cloudy
1:36 PM 53.6 °F - 39.2 °F 58% 29.93 in 10.0 mi South 13.8 mph 23.0 mph N/A   Partly Cloudy
1:56 PM 53.6 °F - 39.2 °F 58% 29.96 in 10.0 mi South 10.4 mph 19.6 mph N/A   Mostly Cloudy
2:16 PM 53.6 °F - 39.2 °F 58% 29.96 in 10.0 mi South 10.4 mph - N/A   Overcast
2:36 PM 53.6 °F - 39.2 °F 58% 29.96 in 10.0 mi South 8.1 mph - N/A   Overcast
2:56 PM 53.6 °F - 39.2 °F 58% 29.94 in 10.0 mi South 11.5 mph 16.1 mph N/A   Overcast
3:16 PM 53.6 °F - 39.2 °F 58% 29.95 in 10.0 mi South 6.9 mph 16.1 mph N/A   Overcast
3:36 PM 53.6 °F - 37.4 °F 54% 29.94 in 10.0 mi South 9.2 mph - N/A   Overcast
3:56 PM 53.6 °F - 37.4 °F 54% 29.94 in 10.0 mi South 9.2 mph 17.3 mph N/A   Overcast
4:16 PM 53.6 °F - 39.2 °F 58% 29.95 in 10.0 mi South 5.8 mph 17.3 mph N/A   Overcast
4:36 PM 53.6 °F - 39.2 °F 58% 29.94 in 10.0 mi South 5.8 mph - N/A   Overcast
4:56 PM 53.6 °F - 39.2 °F 58% 29.94 in 10.0 mi South 6.9 mph - N/A   Mostly Cloudy
5:16 PM 53.6 °F - 39.2 °F 58% 29.94 in 10.0 mi South 11.5 mph 18.4 mph N/A   Mostly Cloudy
5:36 PM 51.8 °F - 39.2 °F 62% 29.93 in 10.0 mi South 11.5 mph 20.7 mph N/A   Overcast
5:56 PM 51.8 °F - 39.2 °F 62% 29.93 in 10.0 mi South 9.2 mph 17.3 mph N/A   Overcast
6:16 PM 51.8 °F - 39.2 °F 62% 29.94 in 10.0 mi South 10.4 mph 18.4 mph N/A   Overcast
6:36 PM 51.8 °F - 39.2 °F 62% 29.94 in 10.0 mi South 13.8 mph 18.4 mph N/A   Overcast
6:56 PM 51.8 °F - 41.0 °F 67% 29.94 in 10.0 mi South 9.2 mph 24.2 mph N/A   Overcast
7:16 PM 51.8 °F - 41.0 °F 67% 29.94 in 10.0 mi South 11.5 mph 24.2 mph N/A   Mostly Cloudy
7:36 PM 51.8 °F - 41.0 °F 67% 29.92 in 10.0 mi SSE 13.8 mph 21.9 mph N/A   Mostly Cloudy
7:56 PM 51.8 °F - 41.0 °F 67% 29.93 in 10.0 mi SSE 15.0 mph 28.8 mph N/A   Mostly Cloudy
8:16 PM 50.0 °F - 41.0 °F 71% 29.94 in 10.0 mi South 11.5 mph 21.9 mph N/A   Mostly Cloudy
8:36 PM 50.0 °F - 41.0 °F 71% 29.95 in 10.0 mi South 9.2 mph 18.4 mph N/A   Scattered Clouds
8:56 PM 50.0 °F - 41.0 °F 71% 29.95 in 10.0 mi SSE 5.8 mph - N/A   Mostly Cloudy
9:16 PM 50.0 °F - 41.0 °F 71% 29.97 in 10.0 mi SSE 4.6 mph - N/A   Overcast
9:36 PM 50.0 °F - 41.0 °F 71% 29.98 in 10.0 mi SSE 10.4 mph 18.4 mph N/A   Overcast
9:56 PM 50.0 °F - 42.8 °F 76% 29.98 in 10.0 mi SSE 10.4 mph 19.6 mph N/A   Overcast
10:16 PM 50.0 °F - 42.8 °F 76% 29.99 in 10.0 mi SSE 10.4 mph 17.3 mph N/A   Overcast
10:36 PM 50.0 °F - 42.8 °F 76% 29.99 in 10.0 mi SSE 6.9 mph - N/A   Overcast
10:56 PM 48.2 °F - 42.8 °F 82% 29.99 in 10.0 mi SSE 8.1 mph 18.4 mph N/A   Overcast
11:16 PM 48.2 °F - 42.8 °F 82% 30.00 in 10.0 mi SSE 8.1 mph - N/A   Overcast
11:36 PM 48.2 °F - 42.8 °F 82% 30.00 in 10.0 mi SSE 6.9 mph - N/A   Overcast
11:56 PM 48.2 °F - 42.8 °F 82% 30.01 in 10.0 mi SSE 8.1 mph - N/A   Overcast